Location: Geelbroek
(52.9503°N, 6.5712°E)
Time: 20:41:55
(UTC+00:00)

Cosmos 2263 Rocket - Pass Details

Date: 15 May 2026
Orbit: 824 x 846 km, 71.0° (Epoch: 8 June)

Event Time Altitude Azimuth Distance (km) Brightness Sun altitude
Exits shadow 23:03:48 12° 119° (ESE) 2,263 4.1 -17.8°
Maximum altitude 23:05:44 15° 97° (E) 2,124 4.1 -17.8°
Drops below altitude 10° 23:08:39 10° 65° (ENE) 2,438 4.8 -17.9°
Sets 23:12:11 0° 43° (NE) 3,374 6.0 -17.9°
